Wind_Speed
5 5 5 5 4 5 3 1 4 6 4 4 9 8 11 9 4 5 14 9 13 17 14 11 8 9 10 11 11 10 8 8 11 11 15 12 13 16 16 16 17 17 16 17 17 17 18 19 20
3 2 3 3 3 3 3 3 7 3 10 10 10 11 8 3 9 16 15 11 12 15 12 10 9 10 11 11 12 10 8 9 12 12 13 12 13 15 16 17 19 16 17 18 18 19 19 19 21
2 2 3 2 1 1 2 3 7 9 10 6 5 11 5 4 14 20 15 14 15 15 13 11 11 12 12 13 15 14 9 12 13 13 13 13 12 13 13 15 16 16 17 18 19 19 19 19 20
3 2 0 3 3 5 5 6 15 6 6 6 12 9 8 9 13 13 19 16 15 14 12 12 12 14 13 16 17 14 15 13 11 13 11 10 9 11 13 13 13 16 18 18 19 19 20 20 19
1 1 2 0 5 3 5 14 8 5 8 6 5 5 6 18 14 19 20 18 17 13 12 13 13 13 14 16 16 14 13 11 10 9 8 9 9 11 12 12 15 16 17 17 18 19 19 19 19
1 1 3 3 5 2 3 6 7 9 12 8 10 8 5 9 18 20 20 18 15 12 14 15 14 14 14 16 17 15 13 9 8 6 8 9 10 11 12 12 14 15 16 17 17 18 19 19 18
2 2 3 2 3 3 4 8 2 9 10 4 9 5 9 13 19 19 19 17 15 13 13 14 14 15 13 14 17 15 13 9 9 8 8 9 10 11 12 12 13 14 15 15 16 16 17 17 16
1 3 1 4 3 2 4 4 8 8 3 7 4 6 7 21 23 19 19 15 15 13 13 13 14 13 14 14 14 14 14 11 7 9 9 9 9 10 11 11 12 13 13 14 14 14 15 15 13
2 3 3 5 1 3 7 3 5 8 10 6 3 4 3 23 29 20 21 20 16 15 13 13 14 14 13 13 13 14 14 12 9 9 10 10 10 9 10 11 12 12 11 11 11 10 10 10 10
3 3 5 1 3 4 6 5 7 5 10 4 5 4 9 28 32 27 24 23 22 19 16 12 13 13 14 14 13 13 14 12 10 9 9 11 9 9 9 9 10 9 9 9 8 7 6 8 8
5 5 2 3 10 9 4 5 6 6 4 10 14 15 18 32 30 28 26 23 25 22 17 15 12 13 10 15 15 14 14 13 12 10 8 10 10 8 8 7 7 7 6 6 6 6 6 7 6
3 9 9 4 4 6 6 7 4 7 4 4 11 14 21 32 28 28 28 27 26 25 21 18 16 14 12 13 14 16 15 14 14 12 9 9 9 8 7 7 6 5 5 4 4 4 3 4 5
4 5 5 8 8 7 7 3 3 6 7 6 11 20 21 26 27 27 26 26 27 29 26 23 22 19 15 14 15 16 16 14 13 12 10 10 9 7 6 6 5 3 2 2 1 2 3 4 7
5 13 5 9 10 5 3 3 5 1 9 10 15 22 19 21 25 27 23 24 25 32 28 25 24 22 18 16 15 15 15 15 15 12 10 9 8 7 6 6 5 4 4 2 1 2 2 3 2
10 2 5 7 6 2 5 6 6 11 6 18 18 19 17 18 23 30 25 24 23 26 27 30 28 24 21 18 18 17 16 16 15 13 14 12 10 10 9 8 8 7 5 5 5 3 0 1 1
3 0 4 4 7 5 8 6 7 17 16 19 21 19 18 19 22 27 29 28 26 24 25 27 30 28 25 22 21 21 19 18 17 16 15 14 12 12 11 10 9 10 7 8 8 4 1 1 1
2 3 4 3 16 5 6 4 10 19 18 18 18 24 23 21 20 23 33 31 30 28 26 26 30 32 29 26 23 22 22 21 19 18 16 15 16 14 13 12 12 11 11 11 8 5 3 4 4
3 3 3 7 6 6 5 7 8 4 18 18 17 23 30 28 23 20 32 32 32 30 29 27 29 33 33 30 24 24 25 23 21 21 19 18 18 17 16 15 15 15 15 13 11 6 5 6 4
8 6 10 6 7 6 16 6 11 24 15 16 17 19 26 33 24 20 27 29 34 32 32 29 31 34 37 36 32 30 30 27 26 25 23 22 20 20 18 17 16 15 15 14 11 11 7 8 6
6 8 9 3 3 6 5 10 9 15 17 25 26 25 20 31 30 25 25 32 37 36 36 33 32 34 36 37 35 33 31 28 26 25 25 24 22 18 18 17 16 14 11 12 11 12 11 11 9
10 7 8 5 2 3 2 6 7 11 24 29 34 35 31 27 32 32 29 32 34 38 38 37 34 34 35 35 36 35 32 31 30 30 29 27 25 21 20 19 18 18 17 15 15 14 14 15 13
15 6 4 7 7 5 5 5 5 6 10 15 25 31 29 31 29 33 32 33 33 36 40 39 36 35 35 35 37 38 38 38 36 34 32 30 29 26 24 22 21 21 22 20 20 15 17 19 18
6 8 5 3 3 1 3 1 6 7 5 10 23 36 35 33 33 33 35 34 33 32 39 42 40 39 38 37 37 38 40 39 37 35 34 32 31 29 28 26 24 25 23 22 20 20 21 24 25
8 7 6 3 2 6 8 6 5 6 9 7 14 26 36 38 37 36 36 36 36 33 32 38 41 43 41 40 39 40 41 41 39 38 36 34 33 31 30 29 28 26 26 24 21 22 24 25 26
9 13 2 4 4 9 6 8 13 7 9 7 6 9 19 30 33 35 37 38 38 37 35 34 39 43 43 43 42 42 42 42 41 40 39 37 36 35 34 32 31 30 29 29 27 26 25 26 26
22 15 5 7 5 5 1 8 6 17 29 22 17 14 10 14 12 24 33 35 37 39 37 36 35 39 43 43 44 44 43 44 43 42 41 40 38 36 33 33 34 33 33 32 33 33 31 28 27
8 14 6 5 2 2 5 6 9 7 9 10 14 11 13 11 9 11 15 32 33 33 34 34 35 36 40 43 44 46 45 45 45 44 43 42 40 39 36 34 35 36 37 39 40 36 35 31 28
12 12 7 1 5 5 5 4 5 7 11 8 9 13 10 9 7 5 6 11 24 27 27 28 32 35 37 40 43 45 46 46 46 45 45 45 42 41 38 36 36 37 39 42 44 41 36 36 34
7 12 4 5 5 5 3 6 7 11 15 9 5 11 14 12 10 5 4 5 12 17 21 24 27 30 33 36 38 42 46 47 47 48 47 46 44 43 38 38 40 41 39 39 44 45 45 39 35
7 11 11 8 8 3 2 5 3 7 8 19 15 17 16 18 19 9 7 3 2 2 4 11 21 27 29 31 34 37 40 43 45 46 47 46 43 42 40 40 40 42 40 37 38 45 46 46 36
Wind_Direction
330 345 325 348 35 60 313 343 133 94 54 66 70 68 105 62 33 136 143 177 165 153 151 130 126 132 140 140 136 134 117 107 99 89 91 89 89 93 87 88 85 83 80 76 76 77 80 86 95
323 347 339 352 80 40 293 62 76 96 115 100 74 119 52 70 105 130 154 172 171 155 140 128 137 134 136 147 147 143 135 118 114 108 103 89 91 107 93 86 86 82 80 79 80 83 86 92 98
284 53 24 75 128 169 129 113 122 115 108 104 103 74 77 88 127 140 157 161 165 151 147 138 130 120 120 127 137 144 135 118 125 120 115 113 94 95 93 93 89 85 82 82 83 84 87 93 100
248 109 69 81 276 312 115 163 126 105 85 85 124 75 86 127 129 159 167 168 163 152 142 135 124 118 116 117 114 118 120 126 131 116 118 108 91 92 90 89 88 85 84 84 86 86 88 92 95
185 101 62 238 268 204 135 146 140 136 140 140 116 141 91 151 146 156 169 174 167 164 154 137 131 125 117 124 122 123 120 122 123 113 104 97 97 97 95 93 87 87 87 88 88 88 89 91 91
215 223 83 231 277 200 84 114 142 137 143 120 113 109 130 152 154 168 173 174 167 165 159 151 143 139 129 130 138 134 131 124 140 115 115 113 107 106 101 95 93 93 92 90 90 91 90 89 89
151 89 203 233 281 165 147 125 69 135 128 96 130 84 140 152 161 171 176 172 176 181 169 158 154 151 144 136 148 148 147 144 117 115 118 119 112 109 103 99 97 95 91 90 91 92 91 88 85
353 87 235 247 183 128 151 102 77 118 84 121 94 157 170 166 165 175 178 185 184 181 180 173 166 162 157 152 155 158 155 146 141 127 123 119 115 108 109 105 99 96 95 94 96 95 93 89 83
37 65 228 242 297 162 145 95 79 98 120 98 105 136 172 162 170 178 183 187 192 190 184 186 179 176 173 169 163 166 162 158 146 138 132 124 121 121 120 114 107 103 101 101 101 100 97 89 83
158 152 220 111 100 145 124 110 145 134 129 111 152 154 149 162 173 182 188 190 189 189 186 184 194 186 186 187 183 173 175 171 163 157 150 135 133 130 128 120 113 110 108 105 99 93 87 81 69
191 213 278 36 124 118 123 123 145 144 207 193 191 168 164 169 179 186 193 199 190 187 192 182 190 199 196 199 191 184 181 178 176 175 165 152 147 142 136 130 127 126 121 115 110 103 88 77 69
246 238 247 248 174 127 144 140 129 210 224 164 216 186 169 176 187 193 198 199 203 193 192 186 188 204 197 200 198 192 191 184 184 188 178 170 170 168 166 152 151 147 144 137 121 107 96 74 41
244 276 306 234 168 135 148 162 192 228 225 218 176 185 181 185 187 199 203 205 206 199 195 193 189 207 212 213 198 195 197 195 193 193 186 185 189 189 186 168 170 162 162 149 128 103 63 31 42
263 224 231 183 165 148 140 208 193 232 192 177 180 189 189 196 193 195 200 212 207 204 204 199 195 206 212 216 212 204 205 205 204 200 198 199 195 204 200 200 207 201 213 201 209 122 87 65 7
232 220 189 200 179 195 204 286 217 222 217 173 181 189 201 207 200 197 189 208 214 214 209 211 203 202 213 218 222 219 213 210 210 209 206 210 205 210 208 211 214 226 213 215 197 200 298 90 256
132 42 149 220 178 227 166 246 256 237 210 182 185 198 213 214 217 200 190 208 215 220 215 213 209 204 211 221 221 223 222 221 215 215 215 217 220 221 225 227 229 231 228 217 211 211 158 326 273
294 169 184 211 196 165 184 237 255 250 222 198 198 200 215 218 218 211 194 198 213 219 219 212 213 211 212 221 223 223 226 227 227 226 226 226 231 231 231 237 244 229 236 222 217 213 229 268 261
176 174 232 208 219 190 200 242 274 276 194 202 206 210 210 215 228 219 201 198 213 220 222 217 215 213 213 221 229 224 226 228 229 232 233 231 232 236 236 241 242 231 230 229 219 222 232 240 253
162 196 204 232 231 162 223 217 237 256 239 230 218 221 212 215 230 223 210 206 212 219 224 224 215 213 213 217 223 222 224 225 227 230 232 235 237 239 236 239 236 234 238 232 224 212 222 239 233
220 199 221 269 153 173 237 245 234 241 240 236 228 224 224 217 219 220 217 209 217 222 223 229 221 216 217 221 225 227 229 231 235 237 237 238 241 241 243 242 242 244 241 222 222 224 231 236 234
231 236 204 206 203 315 357 277 232 240 238 239 236 238 240 227 219 217 219 222 223 218 222 228 227 223 220 222 223 227 229 233 235 234 237 238 241 242 246 247 240 238 233 237 235 237 245 245 244
206 194 191 148 148 223 185 277 287 236 242 233 232 229 230 228 222 219 223 227 228 226 223 229 233 231 229 227 226 227 229 230 234 236 238 240 242 243 246 245 242 236 238 240 245 247 245 245 252
208 145 124 107 110 17 243 249 264 244 250 240 232 235 231 230 223 224 227 238 239 233 227 227 231 233 234 234 233 233 234 237 241 242 242 242 244 245 244 243 242 238 239 243 248 248 252 255 262
151 95 60 56 88 243 207 199 240 219 239 240 225 235 237 233 230 232 234 238 242 238 234 229 230 234 236 238 238 240 240 240 241 243 243 243 244 245 242 242 241 242 242 242 246 256 255 262 264
145 158 146 209 216 239 220 201 245 234 231 210 217 228 232 233 235 236 236 233 237 240 239 237 233 234 237 240 242 242 246 245 248 250 250 250 249 246 245 245 243 240 240 240 245 249 257 260 267
180 173 152 179 205 222 304 229 251 225 239 243 252 242 217 208 238 240 241 240 236 240 240 239 239 238 238 241 245 247 248 249 251 252 253 253 256 257 256 252 249 245 245 249 247 245 251 255 261
178 197 144 105 40 98 210 276 307 261 231 218 217 212 228 231 249 252 247 238 240 240 242 243 242 243 242 243 244 246 249 249 252 254 254 256 258 259 258 255 251 251 248 250 250 252 252 253 258
183 161 167 117 154 237 253 248 227 219 238 224 222 218 240 238 203 200 233 230 230 237 244 248 249 249 250 248 247 248 250 252 253 254 255 257 259 259 257 252 253 253 252 252 251 249 250 250 252
165 192 188 130 162 177 178 253 218 204 211 200 160 156 147 149 169 155 128 198 229 239 242 245 248 251 252 252 252 251 251 253 255 255 257 258 260 260 259 251 248 249 252 254 252 250 249 246 250
194 190 189 188 210 214 179 271 291 210 155 143 143 140 141 140 135 114 57 111 174 292 277 256 247 247 248 250 252 252 253 254 255 257 258 257 258 258 257 256 255 255 257 256 258 251 246 242 252
Height
1553 1553 1552 1551 1560 1562 1566 1558 1550 1554 1557 1559 1559 1558 1565 1570 1572 1581 1579 1580 1582 1584 1585 1585 1587 1587 1588 1589 1590 1591 1592 1593 1593 1593 1592 1592 1592 1592 1591 1592 1591 1592 1592 1592 1591 1591 1591 1591 1591
1553 1553 1552 1551 1567 1578 1571 1556 1559 1554 1556 1559 1561 1564 1565 1574 1574 1576 1578 1581 1583 1584 1585 1587 1588 1588 1589 1589 1591 1592 1593 1594 1595 1595 1595 1595 1594 1593 1593 1593 1593 1593 1594 1594 1594 1593 1593 1594 1593
1554 1552 1553 1555 1565 1571 1568 1559 1557 1557 1557 1559 1563 1565 1569 1574 1575 1577 1578 1581 1583 1585 1586 1587 1588 1588 1589 1590 1592 1593 1594 1596 1596 1597 1596 1596 1596 1595 1595 1595 1595 1595 1596 1596 1596 1596 1596 1596 1596
1554 1553 1555 1563 1565 1558 1557 1558 1555 1557 1557 1559 1562 1568 1572 1575 1577 1578 1579 1582 1584 1584 1586 1587 1588 1589 1589 1591 1592 1594 1595 1597 1597 1597 1597 1597 1597 1597 1597 1597 1597 1598 1598 1598 1599 1599 1599 1599 1598
1553 1553 1560 1562 1561 1554 1553 1554 1554 1556 1558 1560 1562 1570 1574 1576 1578 1580 1581 1581 1584 1585 1586 1587 1589 1589 1590 1591 1593 1595 1596 1597 1598 1598 1599 1598 1599 1599 1599 1600 1600 1600 1600 1601 1601 1601 1601 1601 1601
1553 1553 1566 1570 1562 1553 1551 1551 1554 1555 1559 1561 1564 1568 1575 1576 1578 1580 1581 1582 1585 1586 1587 1588 1589 1590 1591 1592 1594 1595 1596 1598 1598 1599 1599 1599 1600 1601 1601 1602 1602 1602 1603 1603 1603 1603 1603 1603 1603
1554 1554 1561 1560 1558 1554 1552 1551 1553 1557 1558 1562 1565 1570 1574 1576 1578 1580 1581 1583 1585 1587 1588 1589 1590 1591 1592 1593 1594 1595 1596 1597 1598 1599 1600 1600 1601 1602 1602 1603 1604 1604 1604 1604 1605 1605 1605 1605 1605
1554 1554 1556 1557 1559 1558 1552 1552 1554 1556 1560 1562 1563 1568 1572 1573 1578 1578 1582 1584 1586 1587 1588 1590 1590 1592 1593 1593 1595 1596 1596 1597 1599 1600 1600 1601 1602 1603 1604 1605 1605 1605 1606 1606 1606 1606 1606 1606 1606
1553 1560 1561 1554 1551 1554 1551 1552 1554 1557 1560 1562 1564 1566 1567 1569 1575 1579 1581 1583 1585 1587 1588 1589 1590 1591 1593 1594 1595 1597 1597 1598 1599 1599 1601 1602 1603 1604 1605 1605 1605 1606 1606 1607 1607 1607 1607 1606 1606
1554 1562 1554 1547 1548 1551 1551 1552 1554 1558 1560 1563 1563 1565 1567 1569 1572 1575 1579 1581 1582 1584 1586 1588 1589 1591 1592 1594 1595 1596 1598 1598 1598 1599 1600 1602 1603 1604 1605 1606 1606 1606 1607 1607 1607 1608 1607 1607 1606
1552 1556 1547 1549 1548 1548 1551 1552 1554 1557 1561 1558 1559 1562 1565 1569 1571 1574 1577 1581 1582 1583 1584 1586 1587 1590 1592 1593 1594 1596 1597 1598 1599 1599 1599 1600 1602 1604 1605 1606 1606 1606 1607 1607 1607 1607 1607 1607 1606
1553 1548 1548 1550 1549 1549 1551 1552 1552 1555 1556 1556 1556 1559 1562 1566 1569 1572 1574 1578 1580 1582 1583 1586 1587 1587 1591 1592 1594 1595 1596 1597 1598 1598 1599 1600 1601 1603 1604 1605 1606 1606 1606 1607 1607 1607 1607 1607 1607
1550 1547 1548 1548 1549 1548 1549 1551 1553 1552 1554 1554 1554 1558 1560 1564 1566 1570 1572 1576 1579 1580 1582 1583 1586 1587 1589 1591 1593 1594 1596 1596 1597 1598 1599 1600 1601 1603 1604 1605 1605 1606 1606 1606 1607 1607 1607 1607 1606
1547 1547 1549 1550 1548 1549 1550 1552 1552 1551 1552 1552 1553 1556 1558 1560 1562 1567 1568 1571 1574 1577 1580 1582 1583 1586 1587 1589 1591 1593 1594 1596 1597 1598 1599 1599 1600 1602 1603 1604 1604 1605 1605 1605 1606 1606 1606 1606 1606
1548 1549 1548 1549 1549 1549 1550 1553 1550 1549 1551 1550 1551 1554 1557 1559 1560 1560 1562 1565 1569 1573 1577 1579 1582 1584 1586 1587 1589 1591 1592 1593 1596 1597 1598 1598 1599 1600 1600 1601 1602 1603 1604 1604 1604 1604 1605 1605 1605
1548 1547 1554 1548 1548 1550 1550 1553 1545 1546 1548 1548 1549 1550 1553 1554 1556 1558 1560 1563 1566 1569 1573 1576 1579 1581 1583 1585 1586 1588 1590 1591 1593 1595 1597 1598 1598 1599 1599 1600 1600 1601 1602 1603 1603 1604 1603 1604 1603
1550 1554 1551 1548 1545 1546 1549 1550 1542 1543 1544 1544 1545 1545 1548 1551 1552 1554 1556 1560 1561 1563 1567 1570 1574 1577 1579 1582 1583 1586 1588 1590 1591 1592 1594 1596 1597 1597 1597 1598 1599 1600 1600 1600 1601 1601 1602 1602 1602
1557 1553 1550 1548 1545 1545 1548 1548 1541 1541 1540 1539 1540 1541 1543 1545 1546 1550 1553 1555 1557 1559 1561 1565 1568 1571 1574 1577 1579 1582 1583 1585 1588 1589 1591 1592 1593 1594 1595 1596 1595 1596 1596 1598 1598 1598 1599 1600 1599
1546 1550 1551 1545 1540 1545 1544 1545 1541 1537 1538 1538 1536 1538 1538 1538 1541 1545 1549 1551 1555 1556 1556 1558 1561 1565 1568 1569 1572 1575 1577 1580 1582 1584 1585 1587 1589 1590 1590 1591 1592 1592 1593 1594 1595 1595 1596 1596 1597
1542 1547 1546 1540 1538 1542 1542 1542 1537 1533 1531 1532 1532 1532 1532 1535 1537 1540 1543 1545 1547 1549 1551 1553 1555 1560 1563 1565 1567 1570 1573 1576 1579 1582 1582 1583 1584 1587 1588 1589 1590 1591 1591 1591 1592 1593 1594 1594 1594
1542 1543 1541 1541 1540 1539 1543 1544 1535 1527 1524 1524 1524 1525 1526 1529 1531 1534 1535 1538 1542 1543 1545 1547 1550 1554 1557 1559 1563 1566 1570 1572 1574 1575 1576 1577 1580 1582 1584 1585 1586 1587 1588 1588 1588 1589 1590 1591 1592
1541 1537 1538 1540 1545 1553 1543 1555 1533 1521 1519 1517 1516 1518 1519 1522 1525 1526 1528 1531 1534 1536 1539 1543 1545 1548 1553 1556 1556 1557 1559 1560 1563 1567 1569 1572 1573 1576 1578 1580 1581 1582 1583 1584 1585 1586 1585 1585 1587
1535 1534 1539 1542 1550 1548 1545 1550 1531 1520 1519 1513 1510 1510 1512 1515 1518 1521 1522 1524 1525 1531 1532 1536 1539 1542 1545 1548 1550 1553 1554 1556 1558 1562 1564 1567 1569 1570 1572 1574 1576 1578 1579 1580 1581 1582 1582 1582 1581
1531 1536 1544 1547 1549 1549 1542 1543 1531 1519 1510 1504 1502 1502 1503 1507 1511 1514 1516 1519 1520 1524 1528 1531 1534 1536 1539 1542 1545 1547 1549 1551 1553 1555 1558 1560 1562 1564 1566 1568 1570 1572 1573 1575 1577 1578 1578 1578 1577
1524 1532 1555 1558 1556 1540 1533 1540 1513 1506 1499 1496 1497 1498 1498 1501 1504 1507 1509 1512 1514 1517 1521 1524 1528 1531 1533 1536 1537 1540 1542 1547 1548 1550 1552 1554 1556 1557 1559 1561 1563 1565 1566 1568 1569 1570 1571 1571 1571
1510 1515 1536 1551 1546 1546 1539 1533 1509 1490 1489 1491 1493 1494 1497 1498 1499 1500 1502 1505 1508 1511 1514 1518 1522 1525 1528 1531 1532 1534 1537 1538 1540 1543 1545 1547 1549 1551 1554 1555 1557 1559 1561 1561 1562 1562 1564 1565 1564
1511 1511 1518 1537 1564 1550 1532 1514 1499 1488 1487 1486 1487 1488 1491 1493 1495 1497 1497 1501 1505 1507 1508 1510 1513 1516 1518 1520 1523 1525 1528 1530 1531 1534 1536 1538 1540 1541 1544 1547 1549 1550 1552 1553 1554 1554 1555 1556 1557
1499 1503 1520 1530 1543 1542 1523 1514 1501 1490 1484 1483 1484 1483 1487 1490 1494 1495 1496 1498 1500 1503 1505 1506 1508 1509 1511 1514 1516 1517 1519 1521 1523 1526 1526 1526 1527 1529 1533 1536 1539 1541 1543 1544 1544 1545 1546 1547 1548
1498 1497 1501 1505 1518 1523 1527 1507 1479 1476 1472 1478 1480 1481 1484 1488 1491 1493 1494 1496 1498 1499 1500 1501 1502 1503 1505 1508 1510 1512 1513 1515 1517 1516 1517 1518 1521 1522 1525 1528 1528 1528 1530 1533 1533 1536 1537 1538 1539
1484 1487 1489 1499 1508 1510 1511 1500 1469 1468 1469 1474 1480 1481 1483 1485 1489 1491 1493 1494 1495 1496 1497 1496 1496 1497 1499 1500 1503 1504 1506 1508 1510 1511 1512 1513 1515 1517 1519 1521 1522 1523 1524 1524 1525 1526 1527 1528 1529